Regional Weather Roundup
Issued by NWS

Home | Current Version | Previous Version | Graphics & Text | Print | Product List | Glossary On
Versions: 1 2 3 4 5 6 7 8 9 10 11 12 13 14 15 16 17 18 19 20 21 22 23 24 25 26 27 28 29 30 31 32 33 34 35 36 37 38 39 40 41 42 43 44 45 46 47 48 49 50
000
ASUS43 KLOT 250706
RWRIL

ILLINOIS REGIONAL WEATHER ROUNDUP
NATIONAL WEATHER SERVICE CHICAGO/ROMEOVILLE IL
100 AM CST SUN JAN 25 2015

NOTE: "FAIR" INDICATES FEW OR NO CLOUDS BELOW 12,000 FEET WITH NO
SIGNIFICANT WEATHER AND/OR OBSTRUCTIONS TO VISIBILITY.

* THESE STATIONS ARE NOT UNDER NWS QUALITY CONTROL. THEY ALSO MAY NOT
  REPORT WEATHER SUCH AS PRECIPITATION OR FOG.

ILZ001-002-007-009-015-016-024-250800-
NORTHWEST ILLINOIS

CITY           SKY/WX    TMP DP  RH WIND       PRES   REMARKS
MOLINE         CLOUDY    32  30  92 NE5       29.58F WCI  27
STERLING*      CLOUDY    34  30  86 SE5       29.62S WCI  30
SAVANNA*       CLOUDY    34  32  92 NE6       29.62R WCI  29
$$

ILZ003-004-008-010-011-017-018-250800-
NORTH CENTRAL ILLINOIS

CITY           SKY/WX    TMP DP  RH WIND       PRES   REMARKS
ROCKFORD       CLOUDY    33  29  85 E12       29.66S WCI  24
FREEPORT*      CLOUDY    32  30  94 E8        29.65S FOG     WCI  25
ROCHELLE*      CLOUDY    32  32  99 E8        29.64S FOG     WCI  25
DE KALB*       CLOUDY    31  29  94 E10       29.65S FOG     WCI  22
PERU*          MOCLDY    34  33  94 E6        29.63S WCI  29
$$

ILZ005-006-012>014-019>023-250800-
NORTHEAST ILLINOIS

CITY           SKY/WX    TMP DP  RH WIND       PRES   REMARKS
CHICAGO-OHARE  CLOUDY    32  29  88 NE5       29.67S WCI  27
CHICAGO-MIDWAY CLOUDY    35  31  85 E6        29.67F WCI  30
AURORA         CLOUDY    33  29  85 E8        29.65F FOG     WCI  26
LANSING*       MOCLDY    33  32  97 E3        29.67F FOG
JOLIET*        MOCLDY    33  32  95 E6        29.66S FOG     WCI  27
WAUKEGAN       MOCLDY    29  28  96 CALM      29.67S FOG
DUPAGE AIRPORT MOCLDY    32  29  88 NE9       29.65F WCI  24
KANKAKEE*      MOCLDY    31  30  97 E5        29.66F FOG     WCI  26
WHEELING       CLOUDY    32  29  88 CALM      29.69S FOG
MORRIS*        CLOUDY    33  33 100 NE5       29.65R FOG     WCI  29
ROMEOVILLE*    CLOUDY    33  32  96 E7        29.66S WCI  27
NORTHERLY ISL    N/A     32  30  93 NE2         N/A
$$

LMZ740>746-250800-
SOUTHERN LAKE MICHIGAN

STATION/POSITION SKY/WX   TEMP    WIND        PRES    VSBY  WAVE
                          AIR SEA DIR/SP/G                  HT/PER
                          (F)     (DEG/KT/KT) (MB)    (MI)  (FT/S)
WAUKEGAN HARBOR            32        CALM       N/A
HARRISON CRIB              32      30/  3/  3   N/A
BURNHAM HARBOR             32      10/  3/  5   N/A
CALUMET HARBOR             33      20/  4/  4   N/A
MICHIGAN CITY              35        CALM       N/A
$$

ILZ025>027-034>036-040-047-049-050-058-095>099-250800-
WEST-CENTRAL ILLINOIS

CITY           SKY/WX    TMP DP  RH WIND       PRES   REMARKS
QUINCY         CLOUDY    43  32  65 SW9       29.60F
GALESBURG*     CLOUDY    37  33  84 SE3       29.58F
MACOMB*        CLOUDY    40  34  78 SW5       29.60F
JACKSONVILLE*  CLOUDY    45  33  63 S8        29.62F
PITTSFIELD*    CLOUDY    46  34  61 SW7       29.62F
$$

ILZ028>032-037-038-041>044-048-051>054-059>061-250800-
CENTRAL ILLINOIS

CITY           SKY/WX    TMP DP  RH WIND       PRES   REMARKS
PONTIAC        MOCLDY    34  33  96 SE6       29.64F WCI  29
BLOOMINGTON    MOCLDY    34  32  92 S10       29.64F WCI  26
DECATUR        MOCLDY    38  32  79 S6        29.64F WCI  33
PEORIA         MOCLDY    38  32  79 S3        29.61F
LACON*         MOCLDY    37  32  83 SE3       29.61F
LINCOLN*       MOCLDY    36  32  87 SE3       29.63F
SPRINGFIELD    CLOUDY    43  32  65 SW7       29.63F
TAYLORVILLE    MOCLDY    37  32  81 S6        29.64F WCI  33
$$

ILZ033-039-045-046-055>057-062-063-250800-
EAST-CENTRAL ILLINOIS

CITY           SKY/WX    TMP DP  RH WIND       PRES   REMARKS
CHAMPAIGN      CLOUDY    33  31  92 SE5       29.65F WCI  29
DANVILLE*      MOCLDY    35  32  88 S3        29.65F
RANTOUL*       CLOUDY    35  33  93 SE7       29.65F WCI  29
MATTOON        CLOUDY    38  31  76 S7        29.65F WCI  33
PARIS*         CLOUDY    36  33  90 S7        29.68F WCI  30
$$

ILZ079-100>102-250800-
SOUTHWEST ILLINOIS

CITY           SKY/WX    TMP DP  RH WIND       PRES   REMARKS
ALTON          CLOUDY    42  30  61 S9        29.65F
BELLEVILLE     CLOUDY    42  32  69 S5        29.67F
CAHOKIA*       CLOUDY    49  32  52 S5        29.66F
SPARTA*        CLOUDY    45  32  61 S10       29.71F
$$

ILZ064>066-069>071-074>076-080>082-084>086-088>090-092>094-250800-
SOUTH-CENTRAL ILLINOIS

CITY           SKY/WX    TMP DP  RH WIND       PRES   REMARKS
CARBONDALE     MOCLDY    46  31  55 SW14      29.74F
CAIRO*         MOCLDY    46  33  60 S9        29.79F
EFFINGHAM*     CLOUDY    40  29  65 SE3       29.69F
MARION         MOCLDY    43  34  70 S9        29.74F
MT. VERNON     MOCLDY    37  30  75 S6        29.71F WCI  33
CENTRALIA*     MOCLDY    41  32  69 S12       29.69F
SALEM*         MOCLDY    43  33  68 S8        29.70F
METROPOLIS*    MOCLDY    43  33  68 SW6       29.78F
$$

ILZ067-068-072-073-078-083-087-091-250800-
SOUTHEAST ILLINOIS

CITY           SKY/WX    TMP DP  RH WIND       PRES   REMARKS
LAWRENCEVILLE  CLOUDY    36  32  85 S6        29.73F WCI  31
FLORA*         CLOUDY    36  32  85 S8        29.70F WCI  29
FAIRFIELD*     CLOUDY    39  32  76 S6        29.71F WCI  35
HARRISBURG*    MOCLDY    42  33  69 SW7       29.77S
ROBINSON*      CLOUDY    38  32  79 S7        29.72F WCI  32
CARMI*         CLOUDY    45  36  70 S7        29.74F
$$

ABBREVIATIONS USED IN REMARKS
   TC - TEMPERATURE IN CELSIUS
  WCI - WIND CHILL INDEX
   HX - HEAT INDEX
  VSB - VISIBILITY
$$




USA.gov is the U.S. government's official web portal to all federal, state and local government web resources and services.